This is the latest recevied weather packets stored in our database for station/object KQ4UPF. If no packets are shown the sender has not sent any weather packets the latest 10 day(s).
| Time | Temp. | Humidity | Pressure | Rain* | Wind** | Luminosity | Snow |
|---|---|---|---|---|---|---|---|
| 1777749602 | 20° C | 35% | 1016.5 hPa | 0 mm | - | 1000 W/m² | - |
| 1777749299 | 20° C | 33% | 1016.5 hPa | 0 mm | - | 975 W/m² | - |
| 1777748996 | 18.89° C | 40% | 1016.5 hPa | 0 mm | - | 976 W/m² | - |
| 1777748694 | 18.89° C | 37% | 1016.5 hPa | 0 mm | - | 187 W/m² | - |
| 1777748390 | 19.44° C | 32% | 1016.5 hPa | 0 mm | - | 228 W/m² | - |
| 1777748086 | 20° C | 33% | 1016.5 hPa | 0 mm | - | 1006 W/m² | - |
| 1777747782 | 19.44° C | 40% | 1016.6 hPa | 0 mm | - | 1069 W/m² | - |
| 1777747478 | 20° C | 35% | 1016.5 hPa | 0 mm | - | 963 W/m² | - |
| 1777747175 | 19.44° C | 42% | 1016.5 hPa | 0 mm | - | 999 W/m² | - |
| 1777746871 | 19.44° C | 34% | 1016.7 hPa | 0 mm | - | 988 W/m² | - |
| 1777746566 | 19.44° C | 37% | 1016.8 hPa | 0 mm | - | 969 W/m² | - |
| 1777746262 | 19.44° C | 36% | 1016.7 hPa | 0 mm | - | 973 W/m² | - |
| 1777745958 | 18.89° C | 46% | 1016.9 hPa | 0 mm | - | 976 W/m² | - |
| 1777745657 | 18.89° C | 39% | 1017 hPa | 0 mm | - | 981 W/m² | - |
| 1777745355 | 18.89° C | 37% | 1016.9 hPa | 0 mm | - | 982 W/m² | - |
| 1777745052 | 18.33° C | 36% | 1016.9 hPa | 0 mm | - | 987 W/m² | - |
| 1777744748 | 18.33° C | 34% | 1017 hPa | 0 mm | - | 1030 W/m² | - |
| 1777744442 | 18.33° C | 33% | 1017.1 hPa | 0 mm | - | 888 W/m² | - |
| 1777744139 | 18.89° C | 38% | 1017 hPa | 0 mm | - | 1009 W/m² | - |
| 1777743836 | 18.89° C | 36% | 1016.9 hPa | 0 mm | - | 823 W/m² | - |
| 1777743532 | 18.33° C | 38% | 1017 hPa | 0 mm | - | 853 W/m² | - |
| 1777743230 | 18.89° C | 36% | 1017.1 hPa | 0 mm | - | 1069 W/m² | - |
| 1777742928 | 19.44° C | 38% | 1017 hPa | 0 mm | - | 1038 W/m² | - |
| 1777742624 | 18.33° C | 40% | 1017.1 hPa | 0 mm | - | 1070 W/m² | - |
| 1777742320 | 18.33° C | 40% | 1017.2 hPa | 0 mm | - | 912 W/m² | - |
* Rain latest hour (hover to see other rain measurements)
** Current wind speed in m/s (hover to see current wind gust speed)